| time (UTC) | temp C | wind direction | speed KPH | gust KPH | rain 1hr cm | rain 24hr cm | rain mn cm | humidity % | barometer mb |
| 20260906162956 | 33 | 12 | 1.6 | 3.2 | 0.00 | 0.00 | 0.00 | 71 | 1008.8 |
| 20260906162455 | 33 | 318 | 6.4 | 6.4 | 0.00 | 0.00 | 0.00 | 71 | 1008.9 |
| 20260906161950 | 33 | 328 | 8.0 | 11.3 | 0.00 | 0.00 | 0.00 | 71 | 1008.7 |
| 20260906161449 | 33 | 337 | 4.8 | 4.8 | 0.00 | 0.00 | 0.00 | 72 | 1008.8 |
| 20260906160948 | 33 | 170 | 1.6 | 3.2 | 0.00 | 0.00 | 0.00 | 72 | 1008.9 |
| 20260906160442 | 33 | 80 | 8.0 | 9.7 | 0.00 | 0.00 | 0.00 | 70 | 1008.9 |
| 20260906155941 | 32 | 62 | 3.2 | 3.2 | 0.00 | 0.00 | 0.00 | 70 | 1008.9 |
| 20260906155434 | 33 | 121 | 1.6 | 1.6 | 0.00 | 0.00 | 0.00 | 71 | 1009.0 |
| 20260906154930 | 33 | 11 | 3.2 | 4.8 | 0.00 | 0.00 | 0.00 | 70 | 1008.9 |
| 20260906154425 | 32 | 145 | 1.6 | 1.6 | 0.00 | 0.00 | 0.00 | 71 | 1008.9 |
| 20260906153924 | 32 | 92 | 4.8 | 4.8 | 0.00 | 0.00 | 0.00 | 72 | 1009.1 |
| 20260906153423 | 33 | 57 | 8.0 | 9.7 | 0.00 | 0.00 | 0.00 | 69 | 1008.9 |
| 20260906152918 | 32 | 202 | 0.0 | 0.0 | 0.00 | 0.00 | 0.00 | 71 | 1008.9 |
| 20260906152413 | 32 | 253 | 1.6 | 3.2 | 0.00 | 0.00 | 0.00 | 71 | 1008.9 |
| 20260906151912 | 31 | 86 | 1.6 | 1.6 | 0.00 | 0.00 | 0.00 | 72 | 1008.7 |
| 20260906151408 | 31 | 98 | 4.8 | 4.8 | 0.00 | 0.00 | 0.00 | 71 | 1008.9 |
| 20260906150904 | 31 | 66 | 6.4 | 9.7 | 0.00 | 0.00 | 0.00 | 73 | 1008.8 |
| 20260906150358 | 31 | 90 | 9.7 | 12.9 | 0.00 | 0.00 | 0.00 | 75 | 1008.8 |
| 20260906145858 | 31 | 63 | 6.4 | 6.4 | 0.00 | 0.00 | 0.00 | 75 | 1008.7 |
| 20260906145356 | 30 | 117 | 4.8 | 4.8 | 0.00 | 0.00 | 0.00 | 79 | 1008.8 |
| 20260906144852 | 30 | 32 | 3.2 | 4.8 | 0.00 | 0.00 | 0.00 | 79 | 1008.6 |
| 20260906144347 | 30 | 145 | 6.4 | 6.4 | 0.00 | 0.00 | 0.00 | 78 | 1008.7 |
| 20260906143847 | 30 | 82 | 3.2 | 4.8 | 0.00 | 0.00 | 0.00 | 79 | 1008.6 |
| 20260906143343 | 30 | 61 | 1.6 | 1.6 | 0.00 | 0.00 | 0.00 | 81 | 1008.7 |
| 20260906142838 | 30 | 125 | 4.8 | 4.8 | 0.00 | 0.00 | 0.00 | 80 | 1008.7 |
| 20260906142333 | 30 | 94 | 3.2 | 3.2 | 0.00 | 0.00 | 0.00 | 83 | 1008.5 |
| 20260906141833 | 29 | 39 | 4.8 | 4.8 | 0.00 | 0.00 | 0.00 | 83 | 1008.7 |
| 20260906141322 | 29 | 358 | 6.4 | 6.4 | 0.00 | 0.00 | 0.00 | 83 | 1008.6 |
| 20260906140820 | 28 | 101 | 4.8 | 6.4 | 0.00 | 0.00 | 0.00 | 84 | 1009.0 |
| 20260906140316 | 28 | 43 | 4.8 | 4.8 | 0.00 | 0.00 | 0.00 | 84 | 1008.8 |
| 20260906135813 | 28 | 110 | 4.8 | 4.8 | 0.00 | 0.00 | 0.00 | 86 | 1008.8 |
| 20260906135308 | 28 | 5 | 6.4 | 6.4 | 0.00 | 0.00 | 0.00 | 84 | 1009.0 |
| 20260906134804 | 28 | 69 | 3.2 | 3.2 | 0.00 | 0.00 | 0.00 | 84 | 1008.8 |
| 20260906134258 | 28 | 84 | 3.2 | 3.2 | 0.00 | 0.00 | 0.00 | 86 | 1008.8 |
| 20260906133754 | 28 | 117 | 4.8 | 4.8 | 0.00 | 0.00 | 0.00 | 85 | 1008.8 |
| 20260906133250 | 28 | 89 | 0.0 | 1.6 | 0.00 | 0.00 | 0.00 | 86 | 1008.9 |
| 20260906132745 | 27 | 154 | 3.2 | 4.8 | 0.00 | 0.00 | 0.00 | 87 | 1008.9 |
| 20260906132240 | 27 | 163 | 3.2 | 4.8 | 0.00 | 0.00 | 0.00 | 88 | 1008.8 |
| 20260906131735 | 27 | 170 | 3.2 | 3.2 | 0.00 | 0.00 | 0.00 | 88 | 1008.7 |
| 20260906131225 | 27 | 110 | 1.6 | 1.6 | 0.00 | 0.00 | 0.00 | 89 | 1008.8 |
| 20260906130720 | 26 | 147 | 3.2 | 3.2 | 0.00 | 0.00 | 0.00 | 92 | 1008.6 |
| 20260906130215 | 26 | 161 | 4.8 | 4.8 | 0.00 | 0.00 | 0.00 | 92 | 1008.9 |
| 20260906125713 | 26 | 134 | 3.2 | 3.2 | 0.00 | 0.00 | 0.00 | 92 | 1008.7 |
| 20260906125211 | 26 | 149 | 3.2 | 3.2 | 0.00 | 0.00 | 0.00 | 94 | 1008.6 |
| 20260906124707 | 25 | 182 | 1.6 | 3.2 | 0.00 | 0.00 | 0.00 | 96 | 1008.7 |
| 20260906124202 | 25 | 182 | 1.6 | 3.2 | 0.00 | 0.00 | 0.00 | 98 | 1008.6 |
| 20260906123700 | 25 | 273 | 1.6 | 3.2 | 0.00 | 0.00 | 0.00 | 99 | 1008.4 |
| 20260906123156 | 24 | 179 | 3.2 | 4.8 | 0.00 | 0.00 | 0.00 | 99 | 1008.4 |
| 20260906122655 | 24 | 203 | 3.2 | 3.2 | 0.00 | 0.00 | 0.00 | 99 | 1008.3 |
| 20260906122151 | 24 | 238 | 0.0 | 0.0 | 0.00 | 0.00 | 0.00 | 99 | 1008.3 |
| 20260906121647 | 24 | 239 | 0.0 | 0.0 | 0.00 | 0.00 | 0.00 | 99 | 1008.1 |
| 20260906121143 | 23 | 239 | 0.0 | 0.0 | 0.00 | 0.00 | 0.00 | 99 | 1008.1 |
| 20260906120639 | 23 | 239 | 1.6 | 1.6 | 0.00 | 0.00 | 0.00 | 99 | 1008.2 |
| 20260906120136 | 23 | 238 | 0.0 | 0.0 | 0.00 | 0.00 | 0.00 | 99 | 1008.0 |
| 20260906115631 | 23 | 238 | 0.0 | 0.0 | 0.00 | 0.00 | 0.00 | 99 | 1008.0 |
| 20260906115126 | 23 | 238 | 0.0 | 0.0 | 0.00 | 0.00 | 0.00 | 99 | 1008.0 |
| 20260906114619 | 23 | 238 | 0.0 | 0.0 | 0.00 | 0.00 | 0.00 | 99 | 1007.7 |
| 20260906114115 | 23 | 238 | 0.0 | 0.0 | 0.00 | 0.00 | 0.00 | 99 | 1007.8 |
| 20260906113615 | 23 | 238 | 0.0 | 0.0 | 0.00 | 0.00 | 0.00 | 99 | 1007.7 |
| 20260906113109 | 23 | 238 | 0.0 | 0.0 | 0.00 | 0.00 | 0.00 | 99 | 1007.4 |
| 20260906112604 | 23 | 238 | 0.0 | 0.0 | 0.00 | 0.00 | 0.00 | 99 | 1007.5 |
| 20260906112101 | 23 | 239 | 0.0 | 0.0 | 0.00 | 0.00 | 0.00 | 99 | 1007.6 |
| 20260906111600 | 23 | 239 | 0.0 | 0.0 | 0.00 | 0.00 | 0.00 | 99 | 1007.5 |
| 20260906111055 | 23 | 237 | 0.0 | 1.6 | 0.00 | 0.00 | 0.00 | 99 | 1007.6 |
| 20260906110554 | 23 | 239 | 0.0 | 0.0 | 0.00 | 0.00 | 0.00 | 99 | 1007.6 |
| 20260906110054 | 23 | 239 | 0.0 | 0.0 | 0.00 | 0.00 | 0.00 | 99 | 1007.4 |
| 20260906105548 | 23 | 239 | 0.0 | 0.0 | 0.00 | 0.00 | 0.00 | 99 | 1007.2 |
| 20260906105045 | 23 | 239 | 0.0 | 0.0 | 0.00 | 0.00 | 0.00 | 99 | 1007.3 |
| 20260906104543 | 23 | 239 | 0.0 | 0.0 | 0.00 | 0.00 | 0.00 | 99 | 1006.9 |
| 20260906104038 | 23 | 239 | 0.0 | 0.0 | 0.00 | 0.00 | 0.00 | 99 | 1007.2 |
| 20260906103536 | 23 | 239 | 1.6 | 1.6 | 0.00 | 0.00 | 0.00 | 99 | 1007.0 |
| 20260906103031 | 23 | 239 | 0.0 | 0.0 | 0.00 | 0.00 | 0.00 | 99 | 1007.0 |
| 20260906102526 | 23 | 239 | 0.0 | 0.0 | 0.00 | 0.00 | 0.00 | 99 | 1007.0 |
| 20260906102021 | 23 | 240 | 1.6 | 1.6 | 0.00 | 0.00 | 0.00 | 99 | 1007.0 |
| 20260906101521 | 23 | 230 | 1.6 | 1.6 | 0.00 | 0.00 | 0.00 | 99 | 1006.8 |
| 20260906101016 | 23 | 229 | 1.6 | 1.6 | 0.00 | 0.00 | 0.00 | 99 | 1006.6 |
| 20260906100511 | 23 | 229 | 0.0 | 0.0 | 0.00 | 0.00 | 0.00 | 99 | 1006.4 |
| 20260906100006 | 23 | 229 | 0.0 | 0.0 | 0.00 | 0.00 | 0.00 | 99 | 1006.7 |
| 20260906095501 | 23 | 229 | 0.0 | 0.0 | 0.00 | 0.00 | 0.00 | 99 | 1006.9 |
| 20260906094956 | 23 | 229 | 0.0 | 0.0 | 0.00 | 0.00 | 0.00 | 99 | 1006.8 |
| 20260906094455 | 23 | 229 | 0.0 | 0.0 | 0.00 | 0.00 | 0.00 | 99 | 1006.8 |
| 20260906093952 | 23 | 229 | 0.0 | 0.0 | 0.00 | 0.00 | 0.00 | 99 | 1006.7 |
| 20260906093447 | 23 | 229 | 0.0 | 0.0 | 0.00 | 0.00 | 0.00 | 99 | 1006.7 |
| 20260906092942 | 23 | 229 | 0.0 | 0.0 | 0.00 | 0.00 | 0.00 | 99 | 1006.6 |
| 20260906092441 | 23 | 229 | 0.0 | 0.0 | 0.00 | 0.00 | 0.00 | 99 | 1006.6 |
| 20260906091936 | 23 | 230 | 1.6 | 1.6 | 0.00 | 0.00 | 0.00 | 99 | 1006.7 |
| 20260906091432 | 23 | 222 | 0.0 | 0.0 | 0.00 | 0.00 | 0.00 | 99 | 1006.8 |
| 20260906090929 | 23 | 218 | 0.0 | 0.0 | 0.00 | 0.00 | 0.00 | 99 | 1006.5 |
| 20260906090424 | 23 | 203 | 1.6 | 1.6 | 0.00 | 0.00 | 0.00 | 99 | 1006.7 |
| 20260906085919 | 23 | 203 | 1.6 | 1.6 | 0.00 | 0.00 | 0.00 | 99 | 1006.7 |
| 20260906085417 | 23 | 211 | 1.6 | 1.6 | 0.00 | 0.00 | 0.00 | 99 | 1006.6 |
| 20260906084917 | 23 | 213 | 0.0 | 0.0 | 0.00 | 0.00 | 0.00 | 99 | 1006.8 |
| 20260906084412 | 23 | 210 | 0.0 | 1.6 | 0.00 | 0.00 | 0.00 | 99 | 1006.7 |
| 20260906083911 | 23 | 205 | 0.0 | 0.0 | 0.00 | 0.00 | 0.00 | 99 | 1006.6 |
| 20260906083407 | 23 | 205 | 0.0 | 0.0 | 0.00 | 0.00 | 0.00 | 99 | 1006.4 |
| 20260906082906 | 23 | 205 | 0.0 | 0.0 | 0.00 | 0.00 | 0.00 | 99 | 1006.8 |
| 20260906082401 | 23 | 206 | 0.0 | 0.0 | 0.00 | 0.00 | 0.00 | 99 | 1006.7 |
| 20260906081858 | 24 | 205 | 0.0 | 0.0 | 0.00 | 0.00 | 0.00 | 99 | 1006.6 |
| 20260906081353 | 24 | 204 | 1.6 | 1.6 | 0.00 | 0.00 | 0.00 | 99 | 1006.6 |
| 20260906080849 | 24 | 225 | 0.0 | 1.6 | 0.00 | 0.00 | 0.00 | 99 | 1006.5 |
| 20260906080345 | 24 | 226 | 0.0 | 0.0 | 0.00 | 0.00 | 0.00 | 99 | 1006.8 |
| 20260906075844 | 24 | 226 | 0.0 | 0.0 | 0.00 | 0.00 | 0.00 | 99 | 1006.8 |
| 20260906075339 | 24 | 227 | 0.0 | 0.0 | 0.00 | 0.00 | 0.00 | 99 | 1006.7 |
| 20260906074835 | 24 | 227 | 0.0 | 0.0 | 0.00 | 0.00 | 0.00 | 99 | 1006.5 |
| 20260906074334 | 24 | 226 | 0.0 | 0.0 | 0.00 | 0.00 | 0.00 | 99 | 1006.5 |
| 20260906073833 | 24 | 226 | 0.0 | 0.0 | 0.00 | 0.00 | 0.00 | 99 | 1006.6 |
| 20260906073328 | 24 | 226 | 0.0 | 0.0 | 0.00 | 0.00 | 0.00 | 99 | 1006.5 |
| 20260906072825 | 24 | 227 | 0.0 | 0.0 | 0.00 | 0.00 | 0.00 | 99 | 1006.4 |
| 20260906072320 | 25 | 227 | 0.0 | 0.0 | 0.00 | 0.00 | 0.00 | 99 | 1006.5 |
| 20260906071816 | 24 | 226 | 0.0 | 0.0 | 0.00 | 0.00 | 0.00 | 99 | 1006.3 |
| 20260906071316 | 24 | 227 | 0.0 | 0.0 | 0.00 | 0.00 | 0.00 | 99 | 1006.5 |
| 20260906070812 | 24 | 226 | 0.0 | 0.0 | 0.00 | 0.00 | 0.00 | 99 | 1006.2 |
| 20260906070308 | 24 | 227 | 0.0 | 0.0 | 0.00 | 0.00 | 0.00 | 99 | 1006.4 |
| 20260906065802 | 25 | 228 | 1.6 | 1.6 | 0.00 | 0.00 | 0.00 | 99 | 1006.4 |
| 20260906065257 | 25 | 223 | 1.6 | 1.6 | 0.00 | 0.00 | 0.00 | 99 | 1006.5 |
| 20260906064753 | 25 | 219 | 1.6 | 1.6 | 0.00 | 0.00 | 0.00 | 99 | 1006.6 |
| 20260906064249 | 25 | 217 | 0.0 | 0.0 | 0.00 | 0.00 | 0.00 | 99 | 1006.5 |
| 20260906063744 | 25 | 217 | 0.0 | 0.0 | 0.00 | 0.00 | 0.00 | 99 | 1006.6 |
| 20260906063239 | 25 | 216 | 1.6 | 1.6 | 0.00 | 0.00 | 0.00 | 99 | 1006.9 |
| 20260906062734 | 25 | 219 | 0.0 | 1.6 | 0.00 | 0.00 | 0.00 | 99 | 1006.8 |
| 20260906062233 | 25 | 221 | 0.0 | 0.0 | 0.00 | 0.00 | 0.00 | 99 | 1006.9 |
| 20260906061729 | 25 | 222 | 0.0 | 0.0 | 0.00 | 0.00 | 0.00 | 99 | 1007.0 |
| 20260906061226 | 25 | 222 | 0.0 | 1.6 | 0.00 | 0.00 | 0.00 | 99 | 1007.0 |
| 20260906060721 | 25 | 194 | 0.0 | 0.0 | 0.00 | 0.00 | 0.00 | 99 | 1007.0 |
| 20260906060218 | 25 | 195 | 0.0 | 0.0 | 0.00 | 0.00 | 0.00 | 99 | 1007.0 |
| 20260906055714 | 25 | 193 | 0.0 | 0.0 | 0.00 | 0.00 | 0.00 | 99 | 1006.8 |
| 20260906055209 | 25 | 193 | 0.0 | 0.0 | 0.00 | 0.00 | 0.00 | 99 | 1007.3 |
| 20260906054703 | 25 | 223 | 0.0 | 0.0 | 0.00 | 0.00 | 0.00 | 99 | 1006.9 |
| 20260906054159 | 25 | 224 | 0.0 | 0.0 | 0.00 | 0.00 | 0.00 | 99 | 1007.2 |
| 20260906053655 | 25 | 224 | 0.0 | 1.6 | 0.00 | 0.00 | 0.00 | 99 | 1006.9 |
| 20260906053150 | 25 | 208 | 1.6 | 1.6 | 0.00 | 0.00 | 0.00 | 99 | 1007.2 |
| 20260906052645 | 25 | 232 | 0.0 | 0.0 | 0.00 | 0.00 | 0.00 | 99 | 1007.0 |
| 20260906052142 | 25 | 233 | 0.0 | 0.0 | 0.00 | 0.00 | 0.00 | 99 | 1006.9 |
| 20260906051638 | 25 | 233 | 0.0 | 1.6 | 0.00 | 0.00 | 0.00 | 99 | 1007.2 |
| 20260906051137 | 25 | 234 | 0.0 | 0.0 | 0.00 | 0.00 | 0.00 | 99 | 1007.0 |
| 20260906050633 | 25 | 222 | 0.0 | 0.0 | 0.00 | 0.00 | 0.00 | 99 | 1006.9 |
| 20260906050128 | 25 | 222 | 0.0 | 0.0 | 0.00 | 0.00 | 0.00 | 98 | 1007.3 |
| 20260906045627 | 25 | 219 | 0.0 | 0.0 | 0.00 | 0.00 | 0.00 | 99 | 1006.9 |
| 20260906045122 | 25 | 260 | 0.0 | 0.0 | 0.00 | 0.00 | 0.00 | 99 | 1007.4 |
| 20260906044618 | 25 | 272 | 1.6 | 1.6 | 0.00 | 0.00 | 0.00 | 99 | 1007.3 |
| 20260906044113 | 25 | 138 | 1.6 | 1.6 | 0.00 | 0.00 | 0.00 | 98 | 1007.0 |
| 20260906043609 | 25 | 210 | 0.0 | 0.0 | 0.00 | 0.00 | 0.00 | 98 | 1007.2 |
| 20260906043104 | 26 | 211 | 0.0 | 0.0 | 0.00 | 0.00 | 0.00 | 98 | 1007.0 |
| 20260906042603 | 26 | 211 | 0.0 | 0.0 | 0.00 | 0.00 | 0.00 | 97 | 1007.0 |
| 20260906042058 | 26 | 210 | 0.0 | 0.0 | 0.00 | 0.00 | 0.00 | 98 | 1007.3 |
| 20260906041555 | 26 | 211 | 0.0 | 1.6 | 0.00 | 0.00 | 0.00 | 98 | 1007.2 |
| 20260906041049 | 26 | 213 | 0.0 | 0.0 | 0.00 | 0.00 | 0.00 | 98 | 1006.8 |
| 20260906040544 | 26 | 212 | 0.0 | 0.0 | 0.00 | 0.00 | 0.00 | 99 | 1006.9 |
| 20260906040040 | 26 | 212 | 0.0 | 0.0 | 0.00 | 0.00 | 0.00 | 98 | 1006.9 |
| 20260906035535 | 26 | 212 | 0.0 | 0.0 | 0.00 | 0.00 | 0.00 | 98 | 1007.0 |
| 20260906035031 | 26 | 212 | 0.0 | 0.0 | 0.00 | 0.00 | 0.00 | 97 | 1006.8 |
| 20260906034530 | 26 | 212 | 0.0 | 0.0 | 0.00 | 0.00 | 0.00 | 98 | 1006.9 |
| 20260906034026 | 26 | 212 | 0.0 | 0.0 | 0.00 | 0.00 | 0.00 | 97 | 1006.7 |
| 20260906033521 | 26 | 212 | 0.0 | 0.0 | 0.00 | 0.00 | 0.00 | 97 | 1007.0 |
| 20260906033016 | 26 | 212 | 0.0 | 0.0 | 0.00 | 0.00 | 0.00 | 97 | 1007.0 |
| 20260906032512 | 26 | 212 | 0.0 | 0.0 | 0.00 | 0.00 | 0.00 | 97 | 1006.8 |
| 20260906032007 | 26 | 212 | 0.0 | 0.0 | 0.00 | 0.00 | 0.00 | 97 | 1006.9 |
| 20260906031503 | 26 | 218 | 0.0 | 1.6 | 0.00 | 0.00 | 0.00 | 97 | 1006.7 |
| 20260906030957 | 26 | 219 | 0.0 | 0.0 | 0.00 | 0.00 | 0.00 | 96 | 1006.6 |
| 20260906030451 | 26 | 209 | 0.0 | 0.0 | 0.00 | 0.00 | 0.00 | 96 | 1006.6 |
| 20260906025946 | 26 | 209 | 0.0 | 0.0 | 0.00 | 0.00 | 0.00 | 96 | 1006.8 |
| 20260906025440 | 26 | 209 | 0.0 | 0.0 | 0.00 | 0.00 | 0.00 | 96 | 1006.8 |
| 20260906024939 | 26 | 209 | 0.0 | 0.0 | 0.00 | 0.00 | 0.00 | 95 | 1006.6 |
| 20260906024438 | 26 | 209 | 0.0 | 0.0 | 0.00 | 0.00 | 0.00 | 95 | 1006.6 |
| 20260906023933 | 26 | 209 | 0.0 | 0.0 | 0.00 | 0.00 | 0.00 | 94 | 1006.6 |
| 20260906023429 | 26 | 209 | 0.0 | 0.0 | 0.00 | 0.00 | 0.00 | 94 | 1006.6 |
| 20260906022924 | 26 | 208 | 0.0 | 0.0 | 0.00 | 0.00 | 0.00 | 94 | 1006.3 |
| 20260906022420 | 27 | 208 | 0.0 | 0.0 | 0.00 | 0.00 | 0.00 | 94 | 1006.4 |
| 20260906021915 | 27 | 209 | 0.0 | 1.6 | 0.00 | 0.00 | 0.00 | 94 | 1006.4 |
| 20260906021414 | 27 | 209 | 0.0 | 0.0 | 0.00 | 0.00 | 0.00 | 93 | 1006.3 |
| 20260906020909 | 27 | 209 | 0.0 | 0.0 | 0.00 | 0.00 | 0.00 | 93 | 1006.3 |
| 20260906020403 | 27 | 209 | 0.0 | 1.6 | 0.00 | 0.00 | 0.00 | 92 | 1006.1 |
| 20260906015858 | 27 | 231 | 0.0 | 0.0 | 0.00 | 0.00 | 0.00 | 91 | 1006.1 |
| 20260906015356 | 27 | 232 | 0.0 | 1.6 | 0.00 | 0.00 | 0.00 | 91 | 1006.2 |
| 20260906014851 | 27 | 197 | 0.0 | 0.0 | 0.00 | 0.00 | 0.00 | 90 | 1006.0 |
| 20260906014351 | 28 | 196 | 0.0 | 0.0 | 0.00 | 0.00 | 0.00 | 90 | 1006.1 |
| 20260906013847 | 28 | 197 | 0.0 | 1.6 | 0.00 | 0.00 | 0.00 | 91 | 1005.9 |
| 20260906013343 | 28 | 197 | 0.0 | 0.0 | 0.00 | 0.00 | 0.00 | 88 | 1005.7 |
| 20260906012838 | 28 | 197 | 0.0 | 0.0 | 0.00 | 0.00 | 0.00 | 88 | 1006.0 |
| 20260906012333 | 28 | 198 | 1.6 | 1.6 | 0.00 | 0.00 | 0.00 | 88 | 1005.8 |
| 20260906011833 | 28 | 197 | 0.0 | 0.0 | 0.00 | 0.00 | 0.00 | 88 | 1006.0 |
| 20260906011327 | 28 | 199 | 0.0 | 0.0 | 0.00 | 0.00 | 0.00 | 88 | 1005.9 |
| 20260906010823 | 28 | 171 | 0.0 | 0.0 | 0.00 | 0.00 | 0.00 | 87 | 1005.8 |
| 20260906010320 | 28 | 171 | 0.0 | 0.0 | 0.00 | 0.00 | 0.00 | 87 | 1005.8 |
| 20260906005814 | 28 | 171 | 0.0 | 0.0 | 0.00 | 0.00 | 0.00 | 83 | 1005.6 |
| 20260906005313 | 29 | 171 | 0.0 | 0.0 | 0.00 | 0.00 | 0.00 | 83 | 1005.8 |
| 20260906004812 | 30 | 171 | 0.0 | 0.0 | 0.00 | 0.00 | 0.00 | 84 | 1005.4 |
| 20260906004313 | 30 | 171 | 0.0 | 0.0 | 0.00 | 0.00 | 0.00 | 85 | 1005.6 |
| 20260906003808 | 30 | 171 | 0.0 | 0.0 | 0.00 | 0.00 | 0.00 | 80 | 1005.4 |
| 20260906003303 | 30 | 171 | 0.0 | 0.0 | 0.00 | 0.00 | 0.00 | 79 | 1005.5 |
| 20260906002759 | 30 | 171 | 0.0 | 0.0 | 0.00 | 0.00 | 0.00 | 79 | 1005.3 |
| 20260906002258 | 31 | 171 | 0.0 | 0.0 | 0.00 | 0.00 | 0.00 | 78 | 1005.8 |
| 20260906001754 | 31 | 171 | 0.0 | 0.0 | 0.00 | 0.00 | 0.00 | 80 | 1005.6 |
| 20260906001248 | 32 | 171 | 1.6 | 1.6 | 0.00 | 0.00 | 0.00 | 77 | 1005.5 |
| 20260906000743 | 32 | 170 | 1.6 | 1.6 | 0.00 | 0.00 | 0.00 | 74 | 1005.7 |
| 20260906000238 | 33 | 222 | 0.0 | 0.0 | 0.00 | 0.00 | 0.00 | 72 | 1005.8 |
| 20260905235733 | 33 | 222 | 0.0 | 1.6 | 0.00 | 0.00 | 0.00 | 73 | 1005.7 |
| 20260905235233 | 33 | 272 | 0.0 | 0.0 | 0.00 | 0.00 | 0.00 | 66 | 1005.8 |
| 20260905234729 | 34 | 281 | 0.0 | 0.0 | 0.00 | 0.00 | 0.00 | 60 | 1005.9 |
| 20260905234224 | 35 | 320 | 0.0 | 1.6 | 0.00 | 0.00 | 0.00 | 62 | 1005.8 |
| 20260905233719 | 35 | 321 | 0.0 | 1.6 | 0.00 | 0.00 | 0.00 | 55 | 1005.6 |
| 20260905233218 | 35 | 321 | 1.6 | 1.6 | 0.00 | 0.00 | 0.00 | 54 | 1005.8 |
| 20260905232713 | 36 | 321 | 1.6 | 1.6 | 0.00 | 0.00 | 0.00 | 52 | 1005.9 |
| 20260905232209 | 36 | 298 | 3.2 | 3.2 | 0.00 | 0.00 | 0.00 | 50 | 1006.0 |
| 20260905231705 | 36 | 290 | 3.2 | 3.2 | 0.00 | 0.00 | 0.00 | 51 | 1006.0 |
| 20260905231200 | 36 | 302 | 1.6 | 1.6 | 0.00 | 0.00 | 0.00 | 54 | 1005.9 |
| 20260905230656 | 36 | 302 | 1.6 | 1.6 | 0.00 | 0.00 | 0.00 | 51 | 1005.8 |
| 20260905230154 | 37 | 346 | 3.2 | 3.2 | 0.00 | 0.00 | 0.00 | 54 | 1005.7 |
| 20260905225653 | 37 | 350 | 1.6 | 1.6 | 0.00 | 0.00 | 0.00 | 50 | 1005.7 |
| 20260905225148 | 37 | 309 | 3.2 | 3.2 | 0.00 | 0.00 | 0.00 | 50 | 1005.7 |
| 20260905224648 | 37 | 324 | 3.2 | 3.2 | 0.00 | 0.00 | 0.00 | 51 | 1005.7 |
| 20260905224142 | 37 | 238 | 0.0 | 1.6 | 0.00 | 0.00 | 0.00 | 51 | 1005.5 |
| 20260905223639 | 37 | 276 | 3.2 | 3.2 | 0.00 | 0.00 | 0.00 | 49 | 1005.6 |
| 20260905223136 | 37 | 344 | 4.8 | 4.8 | 0.00 | 0.00 | 0.00 | 52 | 1005.7 |
| 20260905222631 | 37 | 295 | 3.2 | 3.2 | 0.00 | 0.00 | 0.00 | 50 | 1005.8 |
| 20260905222126 | 37 | 290 | 3.2 | 3.2 | 0.00 | 0.00 | 0.00 | 52 | 1005.7 |
| 20260905221621 | 37 | 260 | 1.6 | 3.2 | 0.00 | 0.00 | 0.00 | 48 | 1005.6 |
| 20260905221118 | 37 | 271 | 4.8 | 6.4 | 0.00 | 0.00 | 0.00 | 48 | 1005.6 |
| 20260905220613 | 37 | 290 | 3.2 | 3.2 | 0.00 | 0.00 | 0.00 | 49 | 1005.7 |
| 20260905220109 | 37 | 308 | 4.8 | 9.7 | 0.00 | 0.00 | 0.00 | 49 | 1005.8 |
| 20260905215609 | 37 | 280 | 3.2 | 4.8 | 0.00 | 0.00 | 0.00 | 48 | 1005.8 |
| 20260905215104 | 37 | 292 | 3.2 | 3.2 | 0.00 | 0.00 | 0.00 | 49 | 1005.9 |
| 20260905214600 | 37 | 271 | 1.6 | 1.6 | 0.00 | 0.00 | 0.00 | 50 | 1005.9 |
| 20260905214055 | 37 | 194 | 3.2 | 3.2 | 0.00 | 0.00 | 0.00 | 48 | 1005.8 |
| 20260905213550 | 38 | 284 | 4.8 | 4.8 | 0.00 | 0.00 | 0.00 | 51 | 1006.0 |
| 20260905213046 | 38 | 272 | 1.6 | 3.2 | 0.00 | 0.00 | 0.00 | 49 | 1005.7 |
| 20260905212545 | 38 | 255 | 3.2 | 3.2 | 0.00 | 0.00 | 0.00 | 46 | 1005.8 |
| 20260905212045 | 38 | 271 | 3.2 | 3.2 | 0.00 | 0.00 | 0.00 | 49 | 1005.9 |
| 20260905211540 | 38 | 355 | 4.8 | 4.8 | 0.00 | 0.00 | 0.00 | 48 | 1006.0 |
| 20260905211036 | 37 | 48 | 4.8 | 4.8 | 0.00 | 0.00 | 0.00 | 47 | 1006.1 |
| 20260905210531 | 38 | 326 | 3.2 | 3.2 | 0.00 | 0.00 | 0.00 | 47 | 1006.1 |
| 20260905210026 | 38 | 245 | 4.8 | 4.8 | 0.00 | 0.00 | 0.00 | 45 | 1006.2 |
| 20260905205525 | 38 | 336 | 3.2 | 4.8 | 0.00 | 0.00 | 0.00 | 51 | 1006.2 |
| 20260905205025 | 38 | 239 | 3.2 | 3.2 | 0.00 | 0.00 | 0.00 | 47 | 1006.1 |
| 20260905204520 | 37 | 251 | 1.6 | 1.6 | 0.00 | 0.00 | 0.00 | 47 | 1006.3 |
| 20260905204015 | 38 | 238 | 1.6 | 1.6 | 0.00 | 0.00 | 0.00 | 46 | 1006.1 |
| 20260905203510 | 38 | 33 | 0.0 | 1.6 | 0.00 | 0.00 | 0.00 | 47 | 1006.2 |
| 20260905203005 | 38 | 302 | 3.2 | 4.8 | 0.00 | 0.00 | 0.00 | 47 | 1006.2 |
| 20260905202500 | 38 | 207 | 1.6 | 1.6 | 0.00 | 0.00 | 0.00 | 49 | 1006.6 |
| 20260905201955 | 37 | 193 | 4.8 | 4.8 | 0.00 | 0.00 | 0.00 | 49 | 1006.4 |
| 20260905201451 | 37 | 205 | 1.6 | 1.6 | 0.00 | 0.00 | 0.00 | 48 | 1006.6 |
| 20260905200950 | 37 | 179 | 1.6 | 1.6 | 0.00 | 0.00 | 0.00 | 49 | 1006.7 |
| 20260905200446 | 37 | 128 | 1.6 | 1.6 | 0.00 | 0.00 | 0.00 | 48 | 1006.8 |
| 20260905195944 | 36 | 150 | 3.2 | 3.2 | 0.00 | 0.00 | 0.00 | 52 | 1006.7 |
| 20260905195440 | 37 | 168 | 3.2 | 4.8 | 0.00 | 0.00 | 0.00 | 49 | 1006.9 |
| 20260905194935 | 38 | 251 | 0.0 | 0.0 | 0.00 | 0.00 | 0.00 | 45 | 1007.0 |
| 20260905194435 | 38 | 166 | 3.2 | 4.8 | 0.00 | 0.00 | 0.00 | 46 | 1007.2 |
| 20260905193935 | 38 | 189 | 1.6 | 1.6 | 0.00 | 0.00 | 0.00 | 45 | 1007.3 |
| 20260905193430 | 37 | 280 | 1.6 | 1.6 | 0.00 | 0.00 | 0.00 | 46 | 1007.6 |
| 20260905192930 | 37 | 36 | 3.2 | 3.2 | 0.00 | 0.00 | 0.00 | 49 | 1007.4 |
| 20260905192425 | 38 | 204 | 1.6 | 1.6 | 0.00 | 0.00 | 0.00 | 46 | 1007.5 |
| 20260905191921 | 37 | 56 | 1.6 | 1.6 | 0.00 | 0.00 | 0.00 | 51 | 1007.6 |
| 20260905191419 | 37 | 249 | 3.2 | 3.2 | 0.00 | 0.00 | 0.00 | 48 | 1007.8 |
| 20260905190914 | 37 | 295 | 3.2 | 4.8 | 0.00 | 0.00 | 0.00 | 50 | 1007.8 |
| 20260905190412 | 36 | 106 | 6.4 | 6.4 | 0.00 | 0.00 | 0.00 | 49 | 1008.0 |
| 20260905185910 | 37 | 126 | 6.4 | 6.4 | 0.00 | 0.00 | 0.00 | 49 | 1008.1 |
| 20260905185406 | 37 | 79 | 0.0 | 1.6 | 0.00 | 0.00 | 0.00 | 49 | 1008.0 |
| 20260905184904 | 37 | 320 | 8.0 | 9.7 | 0.00 | 0.00 | 0.00 | 49 | 1008.1 |
| 20260905184359 | 37 | 310 | 1.6 | 1.6 | 0.00 | 0.00 | 0.00 | 49 | 1008.1 |
| 20260905183857 | 37 | 110 | 8.0 | 9.7 | 0.00 | 0.00 | 0.00 | 45 | 1008.3 |
| 20260905183353 | 37 | 30 | 3.2 | 3.2 | 0.00 | 0.00 | 0.00 | 50 | 1008.2 |
| 20260905182847 | 37 | 51 | 6.4 | 6.4 | 0.00 | 0.00 | 0.00 | 50 | 1008.2 |
| 20260905182342 | 36 | 280 | 1.6 | 3.2 | 0.00 | 0.00 | 0.00 | 50 | 1008.1 |
| 20260905181837 | 36 | 327 | 9.7 | 11.3 | 0.00 | 0.00 | 0.00 | 50 | 1008.2 |
| 20260905181337 | 37 | 302 | 6.4 | 6.4 | 0.00 | 0.00 | 0.00 | 50 | 1008.1 |
| 20260905180836 | 37 | 314 | 6.4 | 6.4 | 0.00 | 0.00 | 0.00 | 49 | 1008.3 |
| 20260905180331 | 36 | 244 | 3.2 | 3.2 | 0.00 | 0.00 | 0.00 | 53 | 1008.4 |
| 20260905175826 | 36 | 91 | 1.6 | 3.2 | 0.00 | 0.00 | 0.00 | 52 | 1008.3 |
| 20260905175320 | 36 | 82 | 1.6 | 3.2 | 0.00 | 0.00 | 0.00 | 54 | 1008.5 |
| 20260905174815 | 36 | 286 | 3.2 | 3.2 | 0.00 | 0.00 | 0.00 | 51 | 1008.7 |
| 20260905174311 | 36 | 349 | 3.2 | 3.2 | 0.00 | 0.00 | 0.00 | 57 | 1008.6 |
| 20260905173807 | 36 | 22 | 4.8 | 4.8 | 0.00 | 0.00 | 0.00 | 53 | 1008.5 |
| 20260905173303 | 36 | 296 | 1.6 | 3.2 | 0.00 | 0.00 | 0.00 | 56 | 1008.5 |
| 20260905172803 | 36 | 250 | 3.2 | 4.8 | 0.00 | 0.00 | 0.00 | 54 | 1008.5 |
| 20260905172301 | 36 | 290 | 4.8 | 4.8 | 0.00 | 0.00 | 0.00 | 55 | 1008.6 |
| 20260905171757 | 36 | 184 | 1.6 | 1.6 | 0.00 | 0.00 | 0.00 | 55 | 1008.7 |
| 20260905171253 | 36 | 248 | 1.6 | 3.2 | 0.00 | 0.00 | 0.00 | 52 | 1008.8 |
| 20260905170749 | 35 | 201 | 1.6 | 3.2 | 0.00 | 0.00 | 0.00 | 52 | 1009.0 |
| 20260905170245 | 36 | 347 | 3.2 | 6.4 | 0.00 | 0.00 | 0.00 | 55 | 1008.9 |
| 20260905165744 | 36 | 314 | 0.0 | 0.0 | 0.00 | 0.00 | 0.00 | 54 | 1008.7 |
| 20260905165240 | 35 | 301 | 3.2 | 3.2 | 0.00 | 0.00 | 0.00 | 55 | 1008.9 |
| 20260905164740 | 36 | 357 | 8.0 | 9.7 | 0.00 | 0.00 | 0.00 | 56 | 1009.0 |
| 20260905164235 | 35 | 296 | 3.2 | 3.2 | 0.00 | 0.00 | 0.00 | 54 | 1009.2 |
| 20260905163730 | 36 | 322 | 6.4 | 6.4 | 0.00 | 0.00 | 0.00 | 61 | 1009.0 |
| 20260905163227 | 35 | 259 | 3.2 | 3.2 | 0.00 | 0.00 | 0.00 | 57 | 1009.2 |